sat.trackr.live / text

‹ back to catalog

ONEWEB-0548

NORAD 56050 · 2023-043E

PAYLOAD ACTIVE UNKNOWN

§ Identity

Operator
Country
UK
Launch date
2023-03-26
Launch site
SRILR
Launch vehicle
Mass (kg)
RCS (m²)

Purposes: comms

External: N2YO · Heavens-Above · Gunter

§ Orbital elements

Epoch: 2026-05-24T22:40:54.456672Z

Period
109.37 min
Inclination
87.9104°
Eccentricity
0.0002366
Mean motion
13.16594726 rev/d
Perigee alt
1,196.0 km
Apogee alt
1,199.5 km
Semi-major
7,575.9 km
B*
9.4387e-6
RAAN
233.3851°
Arg perigee
92.5195°
Mean anomaly
267.6207°
Rev number
15,590

§ Raw data

ONEWEB-05481 56050U 23043E   26144.94507473  .00000016  00000+0  94387-5 0  99962 56050  87.9104 233.3851 0002366  92.5195 267.6207 13.16594726155904

JSON: /api/v1/satellites/56050 · /tle

For live sub-satellite position, see the globe view (requires WebGL).

§ Visibility from observer

Set your observer location to see the next 7 days of passes ≥ 10°. The values pass through the URL so the page stays shareable.

No JS? Fill the form by hand. The geolocation button needs JavaScript.